Time,TemperatureF,DewpointF,PressureIn,WindDirection,WindDirectionDegrees,WindSpeedMPH,WindSpeedGustMPH,Humidity,HourlyPrecipIn,Conditions,Clouds,dailyrainin,SoftwareType,DateUTC
2013-03-03 01:15:00,24.8,15.4,29.14,ENE,68,0.0,0.0,67,0.00,,---,0.00,VWS V14.01,2013-03-03 07:15:00,
2013-03-03 01:16:00,24.8,15.4,29.14,ENE,68,0.0,0.0,67,0.00,,---,0.00,VWS V14.01,2013-03-03 07:16:00,
2013-03-03 01:21:00,24.8,15.4,29.14,ENE,68,0.0,0.0,67,0.00,,---,0.00,VWS V14.01,2013-03-03 07:21:00,
2013-03-03 01:26:00,24.8,15.4,29.14,NE,45,0.0,2.5,67,0.00,,---,0.00,VWS V14.01,2013-03-03 07:26:00,
2013-03-03 01:31:00,24.8,15.4,29.14,ENE,68,0.9,0.9,67,0.00,,---,0.00,VWS V14.01,2013-03-03 07:31:00,
2013-03-03 01:36:00,24.8,15.4,29.14,East,90,0.0,0.0,67,0.00,,---,0.00,VWS V14.01,2013-03-03 07:36:00,
2013-03-03 01:41:00,24.8,15.4,29.14,ENE,68,1.3,1.3,67,0.00,,---,0.00,VWS V14.01,2013-03-03 07:41:00,
2013-03-03 01:46:00,24.8,15.4,29.14,ESE,112,0.0,1.1,67,0.00,,---,0.00,VWS V14.01,2013-03-03 07:46:00,
2013-03-03 01:51:00,24.8,15.4,29.14,ENE,68,1.1,1.1,67,0.00,,---,0.00,VWS V14.01,2013-03-03 07:51:00,
2013-03-03 01:56:00,24.8,15.4,29.14,ENE,68,0.0,1.6,67,0.00,,---,0.00,VWS V14.01,2013-03-03 07:56:00,
2013-03-03 02:01:00,24.6,15.2,29.12,ENE,68,0.0,0.0,67,0.00,,---,0.00,VWS V14.01,2013-03-03 08:01:00,
2013-03-03 02:06:00,24.6,15.2,29.12,East,90,0.0,0.0,67,0.00,,---,0.00,VWS V14.01,2013-03-03 08:06:00,
2013-03-03 02:11:00,24.6,15.2,29.12,ENE,68,0.0,0.0,67,0.00,,---,0.00,VWS V14.01,2013-03-03 08:11:00,
2013-03-03 02:16:00,24.6,15.2,29.14,ENE,68,0.0,0.0,67,0.00,,---,0.00,VWS V14.01,2013-03-03 08:16:00,
2013-03-03 02:21:00,24.6,15.2,29.14,ENE,68,0.0,0.0,67,0.00,,---,0.00,VWS V14.01,2013-03-03 08:21:00,
2013-03-03 02:27:00,24.4,15.1,29.14,ENE,68,0.0,0.0,67,0.00,,---,0.00,VWS V14.01,2013-03-03 08:27:00,
2013-03-03 02:32:00,24.3,14.9,29.12,ENE,68,0.9,0.9,67,0.00,,---,0.00,VWS V14.01,2013-03-03 08:32:00,
2013-03-03 02:37:00,24.1,14.7,29.12,ENE,68,0.0,0.0,67,0.00,,---,0.00,VWS V14.01,2013-03-03 08:37:00,
2013-03-03 02:42:00,23.9,14.6,29.12,ENE,68,0.0,0.0,67,0.00,,---,0.00,VWS V14.01,2013-03-03 08:42:00,
2013-03-03 02:47:00,23.7,14.0,29.12,NE,45,0.0,0.0,66,0.00,,---,0.00,VWS V14.01,2013-03-03 08:47:00,
2013-03-03 02:52:00,23.5,13.9,29.12,NE,45,0.9,0.9,66,0.00,,---,0.00,VWS V14.01,2013-03-03 08:52:00,
2013-03-03 02:57:00,23.4,14.0,29.12,ENE,68,0.0,0.0,67,0.00,,---,0.00,VWS V14.01,2013-03-03 08:57:00,
2013-03-03 03:02:00,23.2,13.9,29.09,ENE,68,0.0,0.0,67,0.00,,---,0.00,VWS V14.01,2013-03-03 09:02:00,
2013-03-03 03:07:00,22.8,13.5,29.09,ENE,68,0.0,0.0,67,0.00,,---,0.00,VWS V14.01,2013-03-03 09:07:00,
2013-03-03 03:12:00,22.8,13.9,29.09,NNE,22,0.0,0.0,68,0.00,,---,0.00,VWS V14.01,2013-03-03 09:12:00,
2013-03-03 03:17:00,22.6,13.7,29.12,NNE,22,0.0,0.0,68,0.00,,---,0.00,VWS V14.01,2013-03-03 09:17:00,
2013-03-03 03:23:00,22.6,13.7,29.12,NNE,22,0.0,0.0,68,0.00,,---,0.00,VWS V14.01,2013-03-03 09:23:00,
2013-03-03 03:28:00,22.5,13.8,29.12,ENE,68,0.0,0.0,69,0.00,,---,0.00,VWS V14.01,2013-03-03 09:28:00,
2013-03-03 03:33:00,22.5,13.8,29.09,ENE,68,0.0,0.0,69,0.00,,---,0.00,VWS V14.01,2013-03-03 09:33:00,
2013-03-03 03:38:00,22.5,13.8,29.09,ENE,68,0.0,0.0,69,0.00,,---,0.00,VWS V14.01,2013-03-03 09:38:00,
2013-03-03 03:43:00,22.5,13.8,29.09,North,0,0.0,0.0,69,0.00,,---,0.00,VWS V14.01,2013-03-03 09:43:00,
2013-03-03 03:48:00,22.3,14.0,29.09,NE,45,0.0,0.0,70,0.00,,---,0.00,VWS V14.01,2013-03-03 09:48:00,
2013-03-03 03:53:00,22.3,14.0,29.09,NE,45,0.0,0.0,70,0.00,,---,0.00,VWS V14.01,2013-03-03 09:53:00,
2013-03-03 03:58:00,22.3,14.0,29.09,ENE,68,0.0,0.0,70,0.00,,---,0.00,VWS V14.01,2013-03-03 09:58:00,
2013-03-03 04:03:00,22.3,14.0,29.09,ENE,68,2.7,2.7,70,0.00,,---,0.00,VWS V14.01,2013-03-03 10:03:00,
2013-03-03 04:08:00,22.1,13.8,29.09,ENE,68,0.0,0.0,70,0.00,,---,0.00,VWS V14.01,2013-03-03 10:08:00,
2013-03-03 04:13:00,22.1,13.8,29.09,NE,45,0.0,1.1,70,0.00,,---,0.00,VWS V14.01,2013-03-03 10:13:00,
2013-03-03 04:19:00,21.9,13.6,29.09,NE,45,0.0,0.0,70,0.00,,---,0.00,VWS V14.01,2013-03-03 10:19:00,
2013-03-03 04:24:00,21.9,13.6,29.09,NE,45,0.0,0.0,70,0.00,,---,0.00,VWS V14.01,2013-03-03 10:24:00,
2013-03-03 04:29:00,21.9,13.6,29.09,East,90,0.0,0.0,70,0.00,,---,0.00,VWS V14.01,2013-03-03 10:29:00,
2013-03-03 04:34:00,21.7,13.5,29.09,NE,45,1.1,2.0,70,0.00,,---,0.00,VWS V14.01,2013-03-03 10:34:00,
2013-03-03 04:39:00,21.7,13.8,29.09,NE,45,2.0,2.0,71,0.00,,---,0.00,VWS V14.01,2013-03-03 10:39:00,
2013-03-03 04:44:00,21.7,13.8,29.09,ENE,68,1.1,1.6,71,0.00,,---,0.00,VWS V14.01,2013-03-03 10:44:00,
2013-03-03 04:49:00,21.9,14.0,29.09,ENE,68,0.0,0.0,71,0.00,,---,0.00,VWS V14.01,2013-03-03 10:49:00,
2013-03-03 04:54:00,21.9,14.0,29.09,ENE,68,0.0,0.0,71,0.00,,---,0.00,VWS V14.01,2013-03-03 10:54:00,
2013-03-03 04:59:00,21.9,14.0,29.09,ENE,68,0.0,1.6,71,0.00,,---,0.00,VWS V14.01,2013-03-03 10:59:00,
2013-03-03 05:05:00,21.9,14.0,29.09,ENE,68,0.0,0.0,71,0.00,,---,0.00,VWS V14.01,2013-03-03 11:05:00,
2013-03-03 05:10:00,21.9,14.0,29.09,ENE,68,0.0,1.1,71,0.00,,---,0.00,VWS V14.01,2013-03-03 11:10:00,
2013-03-03 05:15:00,21.9,14.0,29.09,ENE,68,1.6,1.6,71,0.00,,---,0.00,VWS V14.01,2013-03-03 11:15:00,
2013-03-03 05:20:00,21.9,13.6,29.09,NE,45,1.1,1.1,70,0.00,,---,0.00,VWS V14.01,2013-03-03 11:20:00,
2013-03-03 05:25:00,21.9,13.6,29.09,ENE,68,1.1,1.1,70,0.00,,---,0.00,VWS V14.01,2013-03-03 11:25:00,
2013-03-03 05:30:00,21.7,13.5,29.09,ENE,68,0.0,0.0,70,0.00,,---,0.00,VWS V14.01,2013-03-03 11:30:00,
2013-03-03 05:35:00,21.7,13.5,29.09,ENE,68,0.0,0.0,70,0.00,,---,0.00,VWS V14.01,2013-03-03 11:35:00,
2013-03-03 05:40:00,21.7,13.5,29.09,ENE,68,0.0,0.0,70,0.00,,---,0.00,VWS V14.01,2013-03-03 11:40:00,
2013-03-03 05:45:00,21.7,13.5,29.09,ESE,112,0.9,0.9,70,0.00,,---,0.00,VWS V14.01,2013-03-03 11:45:00,
2013-03-03 05:50:00,21.7,13.5,29.09,ENE,68,1.6,1.6,70,0.00,,---,0.00,VWS V14.01,2013-03-03 11:50:00,
2013-03-03 05:55:00,21.7,13.5,29.09,ENE,68,0.0,0.9,70,0.00,,---,0.00,VWS V14.01,2013-03-03 11:55:00,
2013-03-03 06:01:00,21.7,13.5,29.09,ENE,68,0.0,0.9,70,0.00,,---,0.00,VWS V14.01,2013-03-03 12:01:00,
2013-03-03 06:06:00,21.7,13.5,29.09,ENE,68,0.0,0.0,70,0.00,,---,0.00,VWS V14.01,2013-03-03 12:06:00,
2013-03-03 06:11:00,21.7,13.5,29.09,East,90,1.3,1.3,70,0.00,,---,0.00,VWS V14.01,2013-03-03 12:11:00,
2013-03-03 06:16:00,21.7,13.5,29.09,ENE,68,0.9,1.6,70,0.00,,---,0.00,VWS V14.01,2013-03-03 12:16:00,
2013-03-03 06:21:00,21.7,13.5,29.09,East,90,1.3,1.3,70,0.00,,---,0.00,VWS V14.01,2013-03-03 12:21:00,
2013-03-03 06:26:00,21.7,13.5,29.09,ENE,68,0.0,1.3,70,0.00,,---,0.00,VWS V14.01,2013-03-03 12:26:00,
2013-03-03 06:31:00,21.7,13.5,29.09,ENE,68,1.1,1.1,70,0.00,,---,0.00,VWS V14.01,2013-03-03 12:31:00,
2013-03-03 06:36:00,21.6,13.3,29.09,ESE,112,1.1,1.1,70,0.00,,---,0.00,VWS V14.01,2013-03-03 12:36:00,
2013-03-03 06:41:00,21.6,13.3,29.09,ESE,112,1.1,1.1,70,0.00,,---,0.00,VWS V14.01,2013-03-03 12:41:00,
2013-03-03 06:46:00,21.6,13.6,29.09,ENE,68,1.3,1.3,71,0.00,,---,0.00,VWS V14.01,2013-03-03 12:46:00,
2013-03-03 06:51:00,21.7,13.8,29.09,East,90,0.0,0.9,71,0.00,,---,0.00,VWS V14.01,2013-03-03 12:51:00,
2013-03-03 06:57:00,21.7,14.1,29.09,NE,45,2.0,2.0,72,0.00,,---,0.00,VWS V14.01,2013-03-03 12:57:00,
2013-03-03 07:02:00,21.9,14.3,29.09,East,90,1.1,1.6,72,0.00,,---,0.00,VWS V14.01,2013-03-03 13:02:00,
2013-03-03 07:07:00,21.9,14.3,29.09,ENE,68,0.9,2.5,72,0.00,,---,0.00,VWS V14.01,2013-03-03 13:07:00,
2013-03-03 07:12:00,22.1,14.5,29.09,NE,45,3.1,3.1,72,0.00,,---,0.00,VWS V14.01,2013-03-03 13:12:00,
2013-03-03 07:17:00,22.1,14.1,29.09,ENE,68,1.1,1.1,71,0.00,,---,0.00,VWS V14.01,2013-03-03 13:17:00,
2013-03-03 07:22:00,22.1,14.1,29.09,East,90,1.3,1.3,71,0.00,,---,0.00,VWS V14.01,2013-03-03 13:22:00,
2013-03-03 07:27:00,22.3,14.3,29.09,ENE,68,1.1,1.1,71,0.00,,---,0.00,VWS V14.01,2013-03-03 13:27:00,
2013-03-03 07:32:00,22.5,14.5,29.09,ENE,68,0.0,0.0,71,0.00,,---,0.00,VWS V14.01,2013-03-03 13:32:00,
2013-03-03 07:37:00,22.5,14.5,29.09,East,90,0.0,0.0,71,0.00,,---,0.00,VWS V14.01,2013-03-03 13:37:00,
2013-03-03 07:42:00,22.6,14.3,29.09,ESE,112,0.0,0.0,70,0.00,,---,0.00,VWS V14.01,2013-03-03 13:42:00,
2013-03-03 07:48:00,22.8,14.5,29.09,ENE,68,0.0,0.9,70,0.00,,---,0.00,VWS V14.01,2013-03-03 13:48:00,
2013-03-03 07:53:00,23.0,14.7,29.09,ENE,68,1.3,1.3,70,0.00,,---,0.00,VWS V14.01,2013-03-03 13:53:00,
2013-03-03 07:58:00,23.4,14.7,29.09,East,90,1.1,1.3,69,0.00,,---,0.00,VWS V14.01,2013-03-03 13:58:00,
2013-03-03 08:03:00,23.5,14.9,29.09,East,90,1.1,1.1,69,0.00,,---,0.00,VWS V14.01,2013-03-03 14:03:00,
2013-03-03 08:08:00,23.5,14.2,29.09,East,90,0.0,1.6,67,0.00,,---,0.00,VWS V14.01,2013-03-03 14:08:00,
2013-03-03 08:13:00,23.9,14.6,29.09,East,90,2.7,2.7,67,0.00,,---,0.00,VWS V14.01,2013-03-03 14:13:00,
2013-03-03 08:18:00,24.1,14.4,29.09,ENE,68,3.1,3.1,66,0.00,,---,0.00,VWS V14.01,2013-03-03 14:18:00,
2013-03-03 08:23:00,24.3,14.2,29.09,ENE,68,1.6,2.0,65,0.00,,---,0.00,VWS V14.01,2013-03-03 14:23:00,
2013-03-03 08:28:00,24.6,14.6,29.09,ESE,112,0.0,0.0,65,0.00,,---,0.00,VWS V14.01,2013-03-03 14:28:00,
2013-03-03 08:33:00,25.3,14.9,29.09,NE,45,2.2,2.2,64,0.00,,---,0.00,VWS V14.01,2013-03-03 14:33:00,
2013-03-03 08:38:00,25.9,15.0,29.09,ENE,68,2.2,2.2,63,0.00,,---,0.00,VWS V14.01,2013-03-03 14:38:00,
2013-03-03 08:43:00,26.1,14.8,29.09,East,90,2.9,2.9,62,0.00,,---,0.00,VWS V14.01,2013-03-03 14:43:00,
2013-03-03 08:48:00,26.2,14.3,29.06,ESE,112,1.3,2.9,60,0.00,,---,0.00,VWS V14.01,2013-03-03 14:48:00,
2013-03-03 08:53:00,27.1,15.5,29.06,SW,225,0.0,0.0,61,0.00,,---,0.00,VWS V14.01,2013-03-03 14:53:00,
2013-03-03 08:58:00,27.3,14.5,29.06,East,90,2.9,2.9,58,0.00,,---,0.00,VWS V14.01,2013-03-03 14:58:00,
2013-03-03 09:03:00,28.2,15.0,29.06,ENE,68,2.5,3.8,57,0.00,,---,0.00,VWS V14.01,2013-03-03 15:03:00,
2013-03-03 09:09:00,28.8,15.5,29.06,ENE,68,1.3,1.3,57,0.00,,---,0.00,VWS V14.01,2013-03-03 15:09:00,
2013-03-03 09:14:00,29.5,15.3,29.09,East,90,2.7,2.9,55,0.00,,---,0.00,VWS V14.01,2013-03-03 15:14:00,
2013-03-03 09:19:00,30.6,16.7,29.09,ENE,68,1.3,1.6,56,0.00,,---,0.00,VWS V14.01,2013-03-03 15:19:00,
2013-03-03 09:24:00,31.3,16.6,29.09,NNE,22,0.0,0.0,54,0.00,,---,0.00,VWS V14.01,2013-03-03 15:24:00,
2013-03-03 09:29:00,32.0,16.4,29.06,ENE,68,3.8,3.8,52,0.00,,---,0.00,VWS V14.01,2013-03-03 15:29:00,
2013-03-03 09:34:00,32.2,16.1,29.06,East,90,1.6,1.6,51,0.00,,---,0.00,VWS V14.01,2013-03-03 15:34:00,
2013-03-03 09:39:00,33.1,17.4,29.06,NE,45,1.3,1.3,52,0.00,,---,0.00,VWS V14.01,2013-03-03 15:39:00,
2013-03-03 09:44:00,33.6,17.9,29.06,ENE,68,1.3,1.3,52,0.00,,---,0.00,VWS V14.01,2013-03-03 15:44:00,
2013-03-03 09:49:00,33.1,16.9,29.06,East,90,2.7,2.7,51,0.00,,---,0.00,VWS V14.01,2013-03-03 15:49:00,
2013-03-03 09:54:00,32.7,16.1,29.06,ENE,68,0.0,1.1,50,0.00,,---,0.00,VWS V14.01,2013-03-03 15:54:00,
2013-03-03 10:00:00,32.7,15.7,29.06,East,90,2.0,2.9,49,0.00,,---,0.00,VWS V14.01,2013-03-03 16:00:00,
2013-03-03 10:05:00,32.9,15.9,29.06,ENE,68,1.1,2.2,49,0.00,,---,0.00,VWS V14.01,2013-03-03 16:05:00,
2013-03-03 10:10:00,32.5,15.5,29.06,North,0,2.5,2.5,49,0.00,,---,0.00,VWS V14.01,2013-03-03 16:10:00,
2013-03-03 10:15:00,32.4,15.8,29.06,SE,135,1.6,1.6,50,0.00,,---,0.00,VWS V14.01,2013-03-03 16:15:00,
2013-03-03 10:20:00,32.0,15.0,29.06,East,90,3.4,3.4,49,0.00,,---,0.00,VWS V14.01,2013-03-03 16:20:00,
2013-03-03 10:25:00,32.2,15.6,29.06,NW,315,0.0,0.0,50,0.00,,---,0.00,VWS V14.01,2013-03-03 16:25:00,
2013-03-03 10:30:00,32.4,15.8,29.06,North,0,2.0,2.0,50,0.00,,---,0.00,VWS V14.01,2013-03-03 16:30:00,
2013-03-03 10:35:00,33.1,16.9,29.06,ENE,68,1.1,1.1,51,0.00,,---,0.00,VWS V14.01,2013-03-03 16:35:00,
2013-03-03 10:40:00,33.3,16.6,29.06,NE,45,2.7,3.1,50,0.00,,---,0.00,VWS V14.01,2013-03-03 16:40:00,
2013-03-03 10:45:00,34.0,16.8,29.06,ENE,68,2.0,2.0,49,0.00,,---,0.00,VWS V14.01,2013-03-03 16:45:00,
2013-03-03 10:50:00,35.2,18.5,29.06,ENE,68,3.1,4.7,50,0.00,,---,0.00,VWS V14.01,2013-03-03 16:50:00,
2013-03-03 10:56:00,36.3,18.5,29.06,ENE,68,4.3,4.3,48,0.00,,---,0.00,VWS V14.01,2013-03-03 16:56:00,
2013-03-03 11:01:00,36.3,18.5,29.06,ENE,68,2.5,2.5,48,0.00,,---,0.00,VWS V14.01,2013-03-03 17:01:00,
2013-03-03 11:06:00,36.1,17.4,29.06,NE,45,3.1,3.1,46,0.00,,---,0.00,VWS V14.01,2013-03-03 17:06:00,
2013-03-03 11:11:00,35.8,17.0,29.06,ENE,68,2.0,2.0,46,0.00,,---,0.00,VWS V14.01,2013-03-03 17:11:00,
2013-03-03 11:16:00,35.6,16.9,29.06,ENE,68,5.4,5.4,46,0.00,,---,0.00,VWS V14.01,2013-03-03 17:16:00,
2013-03-03 11:21:00,35.6,16.9,29.06,East,90,1.3,2.7,46,0.00,,---,0.00,VWS V14.01,2013-03-03 17:21:00,
2013-03-03 11:26:00,36.0,17.2,29.06,North,0,1.6,2.7,46,0.00,,---,0.00,VWS V14.01,2013-03-03 17:26:00,
2013-03-03 11:31:00,35.6,16.4,29.03,ESE,112,3.1,3.1,45,0.00,,---,0.00,VWS V14.01,2013-03-03 17:31:00,
2013-03-03 11:37:00,35.4,16.7,29.03,ESE,112,2.5,2.7,46,0.00,,---,0.00,VWS V14.01,2013-03-03 17:37:00,
2013-03-03 11:42:00,35.4,16.7,29.03,NE,45,2.7,3.8,46,0.00,,---,0.00,VWS V14.01,2013-03-03 17:42:00,
2013-03-03 11:47:00,35.4,16.7,29.03,East,90,3.6,3.6,46,0.00,,---,0.00,VWS V14.01,2013-03-03 17:47:00,
2013-03-03 11:52:00,35.4,16.7,29.03,ENE,68,1.3,2.7,46,0.00,,---,0.00,VWS V14.01,2013-03-03 17:52:00,
2013-03-03 11:57:00,35.8,17.0,29.03,WNW,292,0.0,0.0,46,0.00,,---,0.00,VWS V14.01,2013-03-03 17:57:00,
2013-03-03 12:02:00,35.8,17.0,29.03,ENE,68,2.5,2.5,46,0.00,,---,0.00,VWS V14.01,2013-03-03 18:02:00,
2013-03-03 12:07:00,36.1,17.4,29.03,ENE,68,2.5,2.5,46,0.00,,---,0.00,VWS V14.01,2013-03-03 18:07:00,
2013-03-03 12:12:00,36.1,17.4,29.03,East,90,2.5,2.5,46,0.00,,---,0.00,VWS V14.01,2013-03-03 18:12:00,
2013-03-03 12:17:00,36.7,17.9,29.03,East,90,2.5,4.7,46,0.00,,---,0.00,VWS V14.01,2013-03-03 18:17:00,
2013-03-03 12:22:00,36.5,17.7,29.03,ESE,112,1.3,2.9,46,0.00,,---,0.00,VWS V14.01,2013-03-03 18:22:00,
2013-03-03 12:27:00,36.0,17.2,29.03,NE,45,4.0,4.0,46,0.00,,---,0.00,VWS V14.01,2013-03-03 18:27:00,
2013-03-03 12:32:00,36.0,17.2,29.03,NE,45,3.1,3.1,46,0.00,,---,0.00,VWS V14.01,2013-03-03 18:32:00,
2013-03-03 12:37:00,35.6,16.9,29.03,ENE,68,2.7,2.7,46,0.00,,---,0.00,VWS V14.01,2013-03-03 18:37:00,
2013-03-03 12:43:00,36.1,17.4,29.03,ENE,68,3.4,3.4,46,0.00,,---,0.00,VWS V14.01,2013-03-03 18:43:00,
2013-03-03 12:48:00,36.3,17.5,29.00,ENE,68,1.3,3.4,46,0.00,,---,0.00,VWS V14.01,2013-03-03 18:48:00,
2013-03-03 12:53:00,36.3,17.0,29.00,NE,45,3.6,4.7,45,0.00,,---,0.00,VWS V14.01,2013-03-03 18:53:00,
2013-03-03 12:58:00,36.3,17.0,29.00,ENE,68,1.6,1.6,45,0.00,,---,0.00,VWS V14.01,2013-03-03 18:58:00,
2013-03-03 13:03:00,36.1,16.9,29.00,ENE,68,2.5,2.5,45,0.00,,---,0.00,VWS V14.01,2013-03-03 19:03:00,
2013-03-03 13:08:00,36.3,17.0,29.00,NE,45,2.7,2.7,45,0.00,,---,0.00,VWS V14.01,2013-03-03 19:08:00,
2013-03-03 13:13:00,36.3,17.0,29.00,East,90,3.6,3.6,45,0.00,,---,0.00,VWS V14.01,2013-03-03 19:13:00,
2013-03-03 13:18:00,36.3,17.0,29.00,East,90,3.8,3.8,45,0.00,,---,0.00,VWS V14.01,2013-03-03 19:18:00,
2013-03-03 13:23:00,36.7,17.9,29.00,ENE,68,2.0,2.9,46,0.00,,---,0.00,VWS V14.01,2013-03-03 19:23:00,
2013-03-03 13:29:00,36.7,17.4,28.97,East,90,4.9,4.9,45,0.00,,---,0.00,VWS V14.01,2013-03-03 19:29:00,
2013-03-03 13:34:00,36.5,17.2,28.97,East,90,3.1,3.4,45,0.00,,---,0.00,VWS V14.01,2013-03-03 19:34:00,
2013-03-03 13:39:00,36.0,16.7,28.97,East,90,2.5,2.9,45,0.00,,---,0.00,VWS V14.01,2013-03-03 19:39:00,
2013-03-03 13:44:00,36.0,16.7,28.97,SE,135,2.9,2.9,45,0.00,,---,0.00,VWS V14.01,2013-03-03 19:44:00,
2013-03-03 13:49:00,35.8,16.5,28.97,SE,135,3.6,3.6,45,0.00,,---,0.00,VWS V14.01,2013-03-03 19:49:00,
2013-03-03 13:54:00,35.6,16.4,28.97,ENE,68,2.9,2.9,45,0.00,,---,0.00,VWS V14.01,2013-03-03 19:54:00,
2013-03-03 13:59:00,35.6,16.4,28.97,ENE,68,4.0,4.0,45,0.00,,---,0.00,VWS V14.01,2013-03-03 19:59:00,
2013-03-03 14:04:00,35.4,16.2,28.97,East,90,3.4,3.4,45,0.00,,---,0.00,VWS V14.01,2013-03-03 20:04:00,
2013-03-03 14:09:00,35.6,15.9,28.97,ENE,68,3.1,4.3,44,0.00,,---,0.00,VWS V14.01,2013-03-03 20:09:00,
2013-03-03 14:15:00,35.6,15.9,28.97,ENE,68,3.6,5.4,44,0.00,,---,0.00,VWS V14.01,2013-03-03 20:15:00,
2013-03-03 14:20:00,35.8,16.5,28.97,ENE,68,2.9,3.1,45,0.00,,---,0.00,VWS V14.01,2013-03-03 20:20:00,
2013-03-03 14:25:00,35.6,15.9,28.97,ENE,68,4.0,4.0,44,0.00,,---,0.00,VWS V14.01,2013-03-03 20:25:00,
2013-03-03 14:30:00,35.8,16.5,28.97,NE,45,6.3,6.3,45,0.00,,---,0.00,VWS V14.01,2013-03-03 20:30:00,
2013-03-03 14:35:00,35.8,16.5,28.97,ENE,68,4.3,4.3,45,0.00,,---,0.00,VWS V14.01,2013-03-03 20:35:00,
2013-03-03 14:40:00,36.1,17.4,28.97,ENE,68,1.6,1.6,46,0.00,,---,0.00,VWS V14.01,2013-03-03 20:40:00,
2013-03-03 14:45:00,36.3,17.0,28.94,SE,135,4.9,5.4,45,0.00,,---,0.00,VWS V14.01,2013-03-03 20:45:00,
2013-03-03 14:50:00,36.5,17.2,28.94,ENE,68,2.7,3.6,45,0.00,,---,0.00,VWS V14.01,2013-03-03 20:50:00,
2013-03-03 14:55:00,36.7,17.4,28.94,ENE,68,2.7,2.7,45,0.00,,---,0.00,VWS V14.01,2013-03-03 20:55:00,
2013-03-03 15:01:00,36.7,17.4,28.94,ESE,112,3.4,4.0,45,0.00,,---,0.00,VWS V14.01,2013-03-03 21:01:00,
2013-03-03 15:06:00,36.5,16.7,28.94,NE,45,3.6,4.0,44,0.00,,---,0.00,VWS V14.01,2013-03-03 21:06:00,
2013-03-03 15:11:00,36.7,17.4,28.94,ENE,68,2.0,2.0,45,0.00,,---,0.00,VWS V14.01,2013-03-03 21:11:00,
2013-03-03 15:16:00,36.5,16.7,28.94,SE,135,3.6,3.6,44,0.00,,---,0.00,VWS V14.01,2013-03-03 21:16:00,
2013-03-03 15:21:00,36.5,16.7,28.94,SE,135,2.7,2.7,44,0.00,,---,0.00,VWS V14.01,2013-03-03 21:21:00,
2013-03-03 15:26:00,36.3,16.0,28.94,East,90,5.6,5.6,43,0.00,,---,0.00,VWS V14.01,2013-03-03 21:26:00,
2013-03-03 15:31:00,36.1,15.8,28.94,ENE,68,3.1,3.1,43,0.00,,---,0.00,VWS V14.01,2013-03-03 21:31:00,
2013-03-03 15:36:00,36.0,15.6,28.94,East,90,1.6,1.6,43,0.00,,---,0.00,VWS V14.01,2013-03-03 21:36:00,
2013-03-03 15:42:00,36.1,15.8,28.94,ENE,68,2.9,6.0,43,0.00,,---,0.00,VWS V14.01,2013-03-03 21:42:00,
2013-03-03 15:47:00,36.1,15.8,28.94,NNE,22,2.9,4.7,43,0.00,,---,0.00,VWS V14.01,2013-03-03 21:47:00,
2013-03-03 15:52:00,36.3,16.0,28.94,NE,45,3.4,3.4,43,0.00,,---,0.00,VWS V14.01,2013-03-03 21:52:00,
2013-03-03 15:57:00,36.1,15.8,28.94,East,90,1.6,3.8,43,0.00,,---,0.00,VWS V14.01,2013-03-03 21:57:00,
2013-03-03 16:02:00,36.1,15.8,28.94,NNE,22,2.9,2.9,43,0.00,,---,0.00,VWS V14.01,2013-03-03 22:02:00,
2013-03-03 16:07:00,36.0,15.6,28.94,ENE,68,4.0,4.0,43,0.00,,---,0.00,VWS V14.01,2013-03-03 22:07:00,
2013-03-03 16:12:00,36.0,15.6,28.94,East,90,2.7,2.7,43,0.00,,---,0.00,VWS V14.01,2013-03-03 22:12:00,
2013-03-03 16:17:00,35.8,15.5,28.94,ENE,68,3.6,3.6,43,0.00,,---,0.00,VWS V14.01,2013-03-03 22:17:00,
2013-03-03 16:23:00,35.8,16.0,28.94,NE,45,2.7,3.4,44,0.00,,---,0.00,VWS V14.01,2013-03-03 22:23:00,
2013-03-03 16:28:00,35.8,16.5,28.94,South,180,3.1,3.1,45,0.00,,---,0.00,VWS V14.01,2013-03-03 22:28:00,
2013-03-03 16:33:00,35.6,16.4,28.94,East,90,1.3,3.6,45,0.00,,---,0.00,VWS V14.01,2013-03-03 22:33:00,
2013-03-03 16:38:00,35.4,16.7,28.94,ENE,68,3.1,3.1,46,0.00,,---,0.00,VWS V14.01,2013-03-03 22:38:00,
2013-03-03 16:43:00,35.2,16.5,28.94,ENE,68,2.5,2.5,46,0.00,,---,0.00,VWS V14.01,2013-03-03 22:43:00,
2013-03-03 16:48:00,35.2,17.0,28.94,ENE,68,2.2,2.9,47,0.00,,---,0.00,VWS V14.01,2013-03-03 22:48:00,
2013-03-03 16:53:00,34.9,16.7,28.94,East,90,2.7,3.4,47,0.00,,---,0.00,VWS V14.01,2013-03-03 22:53:00,
2013-03-03 16:58:00,34.7,17.0,28.94,NE,45,0.0,0.0,48,0.00,,---,0.00,VWS V14.01,2013-03-03 22:58:00,
2013-03-03 17:03:00,34.5,16.9,28.94,ENE,68,5.8,5.8,48,0.00,,---,0.00,VWS V14.01,2013-03-03 23:03:00,
2013-03-03 17:08:00,34.2,17.0,28.94,East,90,4.0,4.0,49,0.00,,---,0.00,VWS V14.01,2013-03-03 23:08:00,
2013-03-03 17:14:00,34.0,16.8,28.94,ENE,68,2.0,2.2,49,0.00,,---,0.00,VWS V14.01,2013-03-03 23:14:00,
2013-03-03 17:19:00,33.8,16.7,28.94,ENE,68,2.7,2.9,49,0.00,,---,0.00,VWS V14.01,2013-03-03 23:19:00,
2013-03-03 17:24:00,33.4,16.8,28.94,East,90,2.5,2.9,50,0.00,,---,0.00,VWS V14.01,2013-03-03 23:24:00,
2013-03-03 17:29:00,33.3,16.6,28.94,ENE,68,3.6,3.6,50,0.00,,---,0.00,VWS V14.01,2013-03-03 23:29:00,
2013-03-03 17:34:00,33.1,16.9,28.94,NNE,22,3.4,3.4,51,0.00,,---,0.00,VWS V14.01,2013-03-03 23:34:00,
2013-03-03 17:39:00,32.9,16.8,28.94,ENE,68,1.1,2.2,51,0.00,,---,0.00,VWS V14.01,2013-03-03 23:39:00,
2013-03-03 17:44:00,32.7,16.6,28.94,East,90,3.1,3.1,51,0.00,,---,0.00,VWS V14.01,2013-03-03 23:44:00,
2013-03-03 17:49:00,32.5,16.4,28.94,NE,45,0.9,0.9,51,0.00,,---,0.00,VWS V14.01,2013-03-03 23:49:00,
2013-03-03 17:54:00,32.5,16.9,28.94,ENE,68,1.3,3.8,52,0.00,,---,0.00,VWS V14.01,2013-03-03 23:54:00,
2013-03-03 17:59:00,32.4,16.7,28.94,East,90,2.5,3.4,52,0.00,,---,0.00,VWS V14.01,2013-03-03 23:59:00,
2013-03-03 18:04:00,32.2,16.5,28.94,ENE,68,1.6,1.6,52,0.00,,---,0.00,VWS V14.01,2013-03-04 00:04:00,
2013-03-03 18:09:00,32.0,16.4,28.94,ENE,68,2.7,3.1,52,0.00,,---,0.00,VWS V14.01,2013-03-04 00:09:00,
2013-03-03 18:15:00,32.0,16.4,28.91,East,90,1.6,3.1,52,0.00,,---,0.00,VWS V14.01,2013-03-04 00:15:00,
2013-03-03 18:20:00,31.8,16.6,28.91,East,90,3.4,3.4,53,0.00,,---,0.00,VWS V14.01,2013-03-04 00:20:00,
2013-03-03 18:25:00,31.6,16.5,28.91,ESE,112,2.5,2.5,53,0.00,,---,0.00,VWS V14.01,2013-03-04 00:25:00,
2013-03-03 18:30:00,31.6,16.5,28.91,East,90,1.3,2.7,53,0.00,,---,0.00,VWS V14.01,2013-03-04 00:30:00,
2013-03-03 18:35:00,31.6,16.5,28.91,NE,45,6.3,6.3,53,0.00,,---,0.00,VWS V14.01,2013-03-04 00:35:00,
2013-03-03 18:40:00,31.5,16.3,28.91,ENE,68,1.6,1.6,53,0.00,,---,0.00,VWS V14.01,2013-03-04 00:40:00,
2013-03-03 18:45:00,31.3,16.1,28.91,NE,45,2.9,2.9,53,0.00,,---,0.00,VWS V14.01,2013-03-04 00:45:00,
2013-03-03 18:50:00,31.3,15.7,28.91,ENE,68,2.7,2.7,52,0.00,,---,0.00,VWS V14.01,2013-03-04 00:50:00,
2013-03-03 18:56:00,31.3,15.7,28.91,SSE,158,1.3,5.6,52,0.00,,---,0.00,VWS V14.01,2013-03-04 00:56:00,
2013-03-03 19:01:00,31.1,15.5,28.94,ESE,112,2.9,3.4,52,0.00,,---,0.00,VWS V14.01,2013-03-04 01:01:00,
2013-03-03 19:06:00,31.1,15.1,28.94,NE,45,1.3,1.3,51,0.00,,---,0.00,VWS V14.01,2013-03-04 01:06:00,
2013-03-03 19:11:00,31.1,15.5,28.94,East,90,1.3,2.0,52,0.00,,---,0.00,VWS V14.01,2013-03-04 01:11:00,
2013-03-03 19:16:00,31.1,15.1,28.94,NE,45,2.7,2.7,51,0.00,,---,0.00,VWS V14.01,2013-03-04 01:16:00,
2013-03-03 19:21:00,31.1,15.1,28.94,ENE,68,4.9,4.9,51,0.00,,---,0.00,VWS V14.01,2013-03-04 01:21:00,
2013-03-03 19:26:00,31.1,15.1,28.94,East,90,2.9,2.9,51,0.00,,---,0.00,VWS V14.01,2013-03-04 01:26:00,
2013-03-03 19:31:00,30.9,14.9,28.91,NE,45,2.7,2.7,51,0.00,,---,0.00,VWS V14.01,2013-03-04 01:31:00,
2013-03-03 19:36:00,30.9,15.4,28.91,ESE,112,2.9,2.9,52,0.00,,---,0.00,VWS V14.01,2013-03-04 01:36:00,
2013-03-03 19:41:00,30.9,15.4,28.91,NE,45,2.0,2.5,52,0.00,,---,0.00,VWS V14.01,2013-03-04 01:41:00,
2013-03-03 19:46:00,30.9,15.4,28.94,East,90,3.4,3.4,52,0.00,,---,0.00,VWS V14.01,2013-03-04 01:46:00,
2013-03-03 19:52:00,30.9,15.4,28.94,ENE,68,3.1,3.1,52,0.00,,---,0.00,VWS V14.01,2013-03-04 01:52:00,
2013-03-03 19:57:00,30.9,15.4,28.94,NE,45,3.4,4.3,52,0.00,,---,0.00,VWS V14.01,2013-03-04 01:57:00,
2013-03-03 20:02:00,31.1,15.5,28.94,NE,45,3.1,5.4,52,0.00,,---,0.00,VWS V14.01,2013-03-04 02:02:00,
2013-03-03 20:07:00,30.9,15.4,28.94,East,90,2.0,2.0,52,0.00,,---,0.00,VWS V14.01,2013-03-04 02:07:00,
2013-03-03 20:12:00,30.9,15.8,28.94,ENE,68,3.8,3.8,53,0.00,,---,0.00,VWS V14.01,2013-03-04 02:12:00,
2013-03-03 20:17:00,30.9,15.8,28.94,NNE,22,2.9,3.1,53,0.00,,---,0.00,VWS V14.01,2013-03-04 02:17:00,
2013-03-03 20:22:00,30.9,16.2,28.94,ENE,68,2.9,2.9,54,0.00,,---,0.00,VWS V14.01,2013-03-04 02:22:00,
2013-03-03 20:27:00,30.7,16.1,28.94,ESE,112,1.3,1.3,54,0.00,,---,0.00,VWS V14.01,2013-03-04 02:27:00,
2013-03-03 20:32:00,30.6,15.9,28.94,ENE,68,3.1,4.5,54,0.00,,---,0.00,VWS V14.01,2013-03-04 02:32:00,
2013-03-03 20:37:00,30.6,15.9,28.94,ENE,68,2.0,2.9,54,0.00,,---,0.00,VWS V14.01,2013-03-04 02:37:00,
2013-03-03 20:42:00,30.4,15.7,28.94,ENE,68,3.1,3.8,54,0.00,,---,0.00,VWS V14.01,2013-03-04 02:42:00,
2013-03-03 20:48:00,30.4,15.3,28.94,ESE,112,2.5,3.8,53,0.00,,---,0.00,VWS V14.01,2013-03-04 02:48:00,
2013-03-03 20:53:00,30.4,15.7,28.94,East,90,1.6,2.7,54,0.00,,---,0.00,VWS V14.01,2013-03-04 02:53:00,
2013-03-03 20:58:00,30.4,15.7,28.94,East,90,2.5,3.8,54,0.00,,---,0.00,VWS V14.01,2013-03-04 02:58:00,
2013-03-03 21:03:00,30.2,16.4,28.94,East,90,3.6,3.6,56,0.00,,---,0.00,VWS V14.01,2013-03-04 03:03:00,
2013-03-03 21:08:00,30.0,16.6,28.94,ENE,68,5.4,5.4,57,0.00,,---,0.00,VWS V14.01,2013-03-04 03:08:00,
2013-03-03 21:13:00,30.0,17.4,28.94,ENE,68,4.7,4.7,59,0.00,,---,0.00,VWS V14.01,2013-03-04 03:13:00,
2013-03-03 21:18:00,29.8,17.7,28.94,NE,45,2.5,2.5,60,0.00,,---,0.00,VWS V14.01,2013-03-04 03:18:00,
2013-03-03 21:23:00,29.8,18.0,28.94,NE,45,1.1,2.5,61,0.00,,---,0.00,VWS V14.01,2013-03-04 03:23:00,
2013-03-03 21:28:00,29.7,18.6,28.94,ENE,68,2.5,2.5,63,0.00,,---,0.00,VWS V14.01,2013-03-04 03:28:00,
2013-03-03 21:34:00,29.7,18.6,28.94,ENE,68,5.4,5.4,63,0.00,,---,0.00,VWS V14.01,2013-03-04 03:34:00,
2013-03-03 21:39:00,29.5,18.8,28.94,East,90,2.0,5.4,64,0.00,,---,0.00,VWS V14.01,2013-03-04 03:39:00,
2013-03-03 21:44:00,29.5,19.2,28.94,ENE,68,2.5,3.4,65,0.00,,---,0.00,VWS V14.01,2013-03-04 03:44:00,
2013-03-03 21:49:00,29.5,19.5,28.94,NNE,22,2.7,2.7,66,0.00,,---,0.00,VWS V14.01,2013-03-04 03:49:00,
2013-03-03 21:54:00,29.3,19.7,28.94,SE,135,3.8,3.8,67,0.00,,---,0.00,VWS V14.01,2013-03-04 03:54:00,
2013-03-03 21:59:00,29.3,19.7,28.94,NNE,22,1.6,1.6,67,0.00,,---,0.00,VWS V14.01,2013-03-04 03:59:00,
2013-03-03 22:04:00,29.1,19.5,28.94,ENE,68,1.1,1.3,67,0.00,,---,0.00,VWS V14.01,2013-03-04 04:04:00,
2013-03-03 22:09:00,29.1,19.5,28.94,ENE,68,1.3,3.4,67,0.00,,---,0.00,VWS V14.01,2013-03-04 04:09:00,
2013-03-03 22:14:00,29.1,19.9,28.94,East,90,2.5,2.5,68,0.00,,---,0.00,VWS V14.01,2013-03-04 04:14:00,
2013-03-03 22:19:00,28.9,19.7,28.94,NE,45,5.8,5.8,68,0.00,,---,0.00,VWS V14.01,2013-03-04 04:19:00,
2013-03-03 22:25:00,28.9,20.1,28.94,ENE,68,2.5,3.1,69,0.00,,---,0.00,VWS V14.01,2013-03-04 04:25:00,
2013-03-03 22:30:00,28.9,20.1,28.91,East,90,4.0,4.0,69,0.00,,---,0.00,VWS V14.01,2013-03-04 04:30:00,
2013-03-03 22:35:00,28.9,20.1,28.91,ENE,68,3.8,3.8,69,0.00,,---,0.00,VWS V14.01,2013-03-04 04:35:00,
2013-03-03 22:40:00,28.8,19.9,28.91,ESE,112,2.0,2.7,69,0.00,,---,0.00,VWS V14.01,2013-03-04 04:40:00,
2013-03-03 22:45:00,28.8,19.9,28.91,East,90,2.2,2.7,69,0.00,,---,0.00,VWS V14.01,2013-03-04 04:45:00,
2013-03-03 22:50:00,28.8,19.9,28.91,ENE,68,3.8,5.6,69,0.00,,---,0.00,VWS V14.01,2013-03-04 04:50:00,
2013-03-03 22:55:00,28.8,19.9,28.91,ENE,68,3.4,3.4,69,0.00,,---,0.00,VWS V14.01,2013-03-04 04:55:00,
2013-03-03 23:00:00,28.6,20.0,28.91,SE,135,3.1,3.6,70,0.00,,---,0.00,VWS V14.01,2013-03-04 05:00:00,
2013-03-03 23:01:00,28.6,20.0,28.91,ENE,68,2.9,3.1,70,0.00,,---,0.00,VWS V14.01,2013-03-04 05:01:00,
2013-03-03 23:06:00,28.6,20.0,28.91,NE,45,2.0,2.7,70,0.00,,---,0.00,VWS V14.01,2013-03-04 05:06:00,
2013-03-03 23:11:00,28.6,20.0,28.91,NNE,22,3.4,3.4,70,0.00,,---,0.00,VWS V14.01,2013-03-04 05:11:00,
2013-03-03 23:16:00,28.6,20.4,28.91,NE,45,0.9,2.2,71,0.00,,---,0.00,VWS V14.01,2013-03-04 05:16:00,
2013-03-03 23:21:00,28.6,20.4,28.91,ENE,68,0.0,0.0,71,0.00,,---,0.00,VWS V14.01,2013-03-04 05:21:00,
2013-03-03 23:26:00,28.6,20.7,28.91,NE,45,2.5,2.5,72,0.00,,---,0.00,VWS V14.01,2013-03-04 05:26:00,
2013-03-03 23:31:00,28.6,20.7,28.91,East,90,2.5,2.5,72,0.00,,---,0.00,VWS V14.01,2013-03-04 05:31:00,
2013-03-03 23:36:00,28.6,20.7,28.91,East,90,2.7,2.7,72,0.00,,---,0.00,VWS V14.01,2013-03-04 05:36:00,
2013-03-03 23:41:00,28.6,20.7,28.91,ESE,112,2.5,2.9,72,0.00,,---,0.00,VWS V14.01,2013-03-04 05:41:00,
2013-03-03 23:46:00,28.6,20.7,28.91,ENE,68,1.3,2.5,72,0.00,,---,0.00,VWS V14.01,2013-03-04 05:46:00,
2013-03-03 23:51:00,28.4,21.5,28.91,ENE,68,2.9,2.9,75,0.00,,---,0.00,VWS V14.01,2013-03-04 05:51:00,
2013-03-03 23:56:00,28.4,21.5,28.91,ESE,112,2.5,2.5,75,0.00,,---,0.00,VWS V14.01,2013-03-04 05:56:00,